OpenBCM V1.07b12 (Linux)

Packet Radio Mailbox

DB0FHN

[JN59NK Nuernberg]

 Login: GUEST





  
ON5GS  > KEPLER   27.12.02 00:38l 15 Lines 413 Bytes #999 (0) @ WW
BID : H7O5P0_ON5VL
Read: DB0FHN GUEST
Subj: SAFIR kepler elements
Path: DB0FHN<DB0RGB<DB0MRW<DB0HOT<DB0ERF<DB0FBB<DB0GOS<ON0AR<ON0RAT<ON5VL
Sent: 021225/0944z @:ON5VL.#LG.BEL.EU [Liege (ON5NI)] DP6.00 $:H7O5P0_ON5VL
From: ON5GS @ ON5VL.#LG.BEL.EU (Dirk)
To:   KEPLER @ WW 
X-Info: Upload without password authentication

- Uplink:         435,275 MHz, AX.25, 1k2 
- Downlink:    145,825 MHz, AX.25, 9k6

- Datentransporter für UI-Frames (APRS)


PAYLOAD E               
1 27609U 02058E   02355.51359314  .00059295  00000-0  85284-2 0    30
2 27609  64.5606  16.5346 0004887 133.7055 226.4427 14.75982095   129

73 de ON5GS
Dirk


Read previous mail | Read next mail


 01.07.2025 23:08:56lGo back Go up